SCP
0 0 0 0 0 0 0 0 0 0 0 0 0 0 0 0 0 0 0 0 0 0 0 0 0 0 0 0 0 0 0 0 0 0 0 0 0 0 0 0 0 0 0 0
0 0 0 0 0 0 0 0 0 0 0 0 0 0 0 0 0 0 0 0 0 0 0 0 0 0 0 0 0 0 0 0 0 0 0 0 0 0 0 0 0 0 0 0
0 0 0 0 0 0 0 0 0 0 0 0 0 0 0 0 0 0 0 0 0 0 0 0 0 0 0 0 0 0 0 0 0 0 0 0 0 0 0 0 0 0 0 0
0 0 0 0 0 0 0 0 0 0 0 0 0 0 0 0 0 0 0 0 0 0 0 0 0 0 0 0 0 0 0 0 0 0 0 0 0 0 0 0 0 0 0 0
0 0 0 0 0 0 0 0 0 0 0 0 0 0 0 0 0 0 0 0 0 0 0 0 0 0 0 0 0 0 0 0 0 0 0 0 0 0 0 0 0 0 0 0
0 0 0 0 0 0 0 0 0 0 0 0 0 0 0 0 0 0 0 0 0 0 0 0 0 0 0 0 0 0 0 0 0 0 0 0 0 0 0 0 0 0 0 0
0 0 0 0 0 0 0 0 0 0 0 0 0 0 0 0 0 0 0 0 0 0 0 0 0 0 0 0 0 0 0 0 0 0 0 0 0 0 0 0 0 0 0 0
0 0 0 0 0 0 0 0 0 0 0 0 0 0 0 0 0 0 0 0 0 0 0 0 0 0 0 0 0 0 0 0 0 0 0 0 0 0 0 0 0 0 0 0
0 0 0 0 0 0 0 0 0 0 0 0 0 0 0 0 0 0 0 0 0 0 0 0 0 0 0 0 0 0 0 0 0 0 0 0 0 0 0 0 0 0 0 0
0 0 0 0 0 0 0 0 0 0 0 0 0 0 0 0 0 0 0 0 0 0 0 0 0 0 0 0 0 0 0 0 0 0 0 0 0 0 0 0 0 0 0 0
0 0 0 0 0 0 0 0 0 0 0 0 0 0 0 0 0 0 0 0 0 0 0 0 0 0 0 0 0 0 0 0 0 0 0 0 0 0 0 0 0 0 0 0
0 0 0 0 0 0 0 0 0 0 0 0 0 0 0 0 0 0 0 0 0 0 0 0 0 0 0 0 0 0 0 0 0 0 0 0 0 0 0 0 0 0 0 0
0 0 0 0 0 0 0 0 0 0 0 0 0 0 0 0 0 0 0 0 0 0 0 0 0 0 0 0 0 0 0 0 0 0 0 0 0 0 0 0 0 0 0 0
0 0 0 0 0 0 0 0 0 0 0 0 0 0 0 0 0 0 0 0 0 0 0 0 0 0 0 0 0 0 0 0 0 0 0 0 0 0 0 0 0 0 0 0
0 0 0 0 0 0 0 0 0 0 0 0 0 0 0 0 0 0 0 0 0 0 0 0 0 0 0 0 0 0 0 0 0 0 0 0 0 0 0 0 0 0 0 0
0 0 0 0 0 0 0 0 0 0 0 0 0 0 0 0 0 0 0 0 0 0 0 0 0 0 0 0 0 0 0 0 0 0 0 0 0 0 -0 0 0 0 0 0
0 0 0 0 0 0 0 0 0 0 0 0 0 0 0 0 0 0 0 0 0 0 0 0 0 0 0 0 0 0 0 0 0 0 0 0 0 0 0 0 0 0 0 0
0 0 0 0 0 0 0 0 0 0 0 0 0 0 0 0 0 0 0 0 0 0 0 0 0 0 0 0 0 0 0 0 0 0 0 0 0 0 0 0 0 0 0 0
0 0 0 0 0 0 0 0 0 0 0 0 0 0 0 0 0 0 0 0 0 0 0 0 0 0 0 0 0 0 0 0 0 0 0 0 0 0 0 0 0 0 0 0
0 0 0 0 0 0 0 0 0 0 0 0 0 0 0 0 0 0 0 0 0 0 0 0 0 0 0 0 0 0 0 0 0 0 0 0 0 0 0 0 0 0 0 0
0 0 0 0 0 0 0 0 0 0 0 -0 -0 -0 -0 0 0 0 0 0 0 0 0 0 0 0 0 0 0 0 0 0 0 0 0 0 0 0 0 0 0 0 0 0
0 0 0 0 0 0 0 0 0 0 0 -0 -0 -0 -0 0 0 0 0 0 0 0 0 0 0 0 0 0 0 0 0 0 0 0 0 0 0 0 0 0 0 0 0 0
0 0 0 0 0 0 0 0 0 0 0 -0 -0 0 0 0 0 0 0 0 0 0 0 0 0 0 0 0 0 0 0 0 0 0 0 0 0 0 0 0 0 0 0 0
0 0 0 0 0 0 0 0 0 0 0 0 0 0 0 0 0 0 0 0 0 0 0 0 0 0 0 0 0 0 0 0 0 0 0 0 0 0 0 0 0 0 0 0
0 0 0 0 0 0 0 0 0 0 0 0 0 0 0 0 0 0 0 0 0 0 0 0 0 0 0 0 0 0 0 0 0 0 0 0 0 0 0 0 0 0 0 0
0 0 0 0 0 0 0 0 0 0 0 0 0 0 0 0 0 0 0 0 0 0 0 0 0 0 0 0 0 0 0 0 0 0 0 0 0 0 0 0 0 0 0 0
Wind_Speed
1 2 3 6 6 5 3 2 3 4 4 3 4 4 5 6 6 7 8 8 9 9 8 8 9 9 8 7 7 7 6 4 4 3 3 3 2 1 1 1 2 3 3 3
2 4 8 5 4 3 3 2 3 4 3 2 2 4 4 6 8 10 10 10 10 8 7 8 9 8 9 8 7 7 7 5 4 3 3 3 3 2 1 1 2 2 3 3
7 6 5 4 3 2 3 3 4 3 3 2 1 4 4 4 4 5 8 9 10 12 12 11 11 9 9 9 9 8 7 6 5 4 3 3 3 2 2 2 1 1 3 3
5 5 2 2 3 3 4 4 3 1 1 3 1 2 7 5 3 5 7 7 9 10 10 11 11 10 11 10 9 8 7 6 5 6 6 5 4 2 2 1 0 1 2 3
4 4 4 4 5 4 4 3 2 1 1 2 1 2 7 3 4 6 7 8 10 10 11 11 11 11 9 9 8 8 8 6 5 5 6 6 3 2 2 2 2 1 2 2
5 3 4 5 4 4 2 3 4 4 3 2 4 4 6 4 6 5 6 7 9 10 10 10 9 8 7 7 7 8 8 6 5 5 6 6 6 4 4 3 2 1 1 1
3 4 3 2 1 1 4 5 4 4 3 5 2 3 7 7 6 6 7 7 8 9 10 9 10 9 9 9 8 8 9 7 6 5 5 5 6 6 6 4 3 2 1 0
4 5 5 3 5 4 3 8 6 4 4 4 2 3 7 5 3 3 5 6 6 8 9 11 11 11 10 10 10 10 9 7 6 5 5 4 5 4 3 4 4 3 2 2
5 5 3 4 3 6 3 3 6 5 1 1 4 4 5 2 1 1 3 5 6 8 9 10 10 10 11 11 10 10 9 7 6 6 5 4 5 5 4 4 4 3 2 2
4 3 3 2 2 1 5 5 4 4 3 2 4 3 4 4 3 2 3 4 5 6 8 8 9 10 10 9 8 8 9 8 7 6 5 5 5 5 5 4 4 3 3 3
3 3 2 1 4 5 3 3 4 4 4 4 3 6 6 7 5 5 4 5 6 8 9 9 8 9 9 8 8 8 7 7 6 6 5 5 5 4 4 4 4 4 3 4
2 4 2 5 5 5 5 6 6 5 3 3 3 8 6 5 5 5 4 4 5 7 8 8 8 8 7 8 8 8 8 7 7 6 5 5 5 4 4 4 4 4 4 4
3 4 2 3 4 0 2 3 5 5 4 4 4 7 4 1 3 4 4 4 4 5 6 6 7 8 8 8 8 8 8 8 7 6 6 5 5 5 5 4 4 4 4 4
4 4 6 8 6 4 4 5 4 5 4 5 7 7 5 3 4 5 5 5 5 6 7 6 6 7 8 8 8 8 7 7 7 6 6 6 5 5 5 5 4 4 4 4
4 3 4 5 5 5 6 7 8 7 8 8 8 7 8 7 7 7 6 5 5 6 7 8 8 7 7 8 7 7 7 7 7 7 6 6 6 5 5 5 4 4 4 5
3 3 2 4 4 5 6 9 9 9 7 7 6 7 7 5 3 4 6 7 7 7 8 8 8 8 8 9 8 7 8 7 7 7 7 6 6 6 6 5 5 5 4 4
3 4 2 4 4 2 8 9 9 7 6 7 8 8 3 3 5 7 8 8 8 8 8 9 9 9 9 9 9 9 8 7 7 7 7 7 7 7 6 6 5 5 5 4
5 4 3 2 1 7 9 5 6 6 5 5 5 5 5 7 7 7 7 8 8 8 8 8 8 8 7 7 7 7 7 7 7 6 7 7 7 7 6 6 6 5 4 4
7 7 4 3 4 6 6 5 6 6 5 4 5 4 4 3 2 1 3 6 8 9 8 8 8 7 7 8 8 8 7 7 6 7 7 7 8 7 7 7 6 5 5 4
5 5 5 4 5 7 7 5 3 4 4 5 5 5 4 4 3 4 4 4 4 5 5 5 5 5 7 8 9 9 8 8 8 8 8 8 8 9 8 8 6 4 5 5
5 4 6 6 5 8 8 5 3 5 8 4 5 5 6 6 7 6 4 4 4 4 5 5 5 6 6 7 9 9 9 9 9 7 6 7 7 8 8 7 5 5 5 5
8 6 7 6 6 10 6 3 6 7 3 2 3 4 5 5 4 4 5 4 4 4 4 5 5 5 5 7 9 9 9 8 7 7 7 7 7 7 7 7 6 6 6 6
8 9 7 8 9 6 4 5 4 3 2 2 2 3 4 3 3 4 4 5 5 5 4 5 5 5 4 6 8 9 8 8 8 8 8 7 6 5 6 7 7 5 5 5
4 3 4 4 6 5 4 3 2 2 2 2 2 3 3 3 4 4 4 4 4 4 4 5 5 5 4 4 6 8 7 8 9 9 8 7 6 5 5 5 5 5 6 5
4 2 3 4 4 2 3 3 2 1 1 1 0 2 3 4 4 5 4 5 5 4 4 5 6 6 5 4 4 5 7 9 9 8 7 6 6 6 5 4 4 6 5 7
5 6 6 7 6 5 5 4 2 2 2 2 1 2 2 4 5 5 5 5 5 5 4 5 5 5 5 5 4 5 6 9 9 8 7 6 5 5 5 5 3 3 3 6
Wind_Direction
191 108 211 218 200 199 205 217 258 260 241 181 209 235 227 205 191 187 189 190 190 192 190 175 168 159 154 153 149 148 144 141 131 121 120 116 114 97 71 75 84 84 94 102
63 234 230 223 227 228 228 246 276 290 275 190 215 257 240 206 204 197 193 193 191 187 176 171 168 163 162 163 160 155 152 149 143 139 141 141 139 130 122 80 69 77 92 97
195 233 224 210 224 227 235 215 236 250 321 11 71 322 295 261 229 207 199 191 184 182 179 175 171 171 166 167 169 164 158 150 145 135 114 99 78 65 52 47 37 44 96 102
227 241 216 202 224 200 241 238 225 227 68 292 149 274 285 265 258 214 204 191 184 182 179 175 174 175 173 173 169 158 154 150 145 133 128 134 135 145 173 164 131 59 84 96
233 205 191 210 224 197 217 238 238 249 183 302 287 186 282 290 254 237 212 197 190 184 177 175 175 178 172 165 161 155 150 147 144 138 140 138 138 150 145 119 107 70 44 77
235 229 198 210 223 199 174 35 25 40 74 283 241 179 273 246 225 227 215 203 191 181 178 176 170 161 155 151 148 151 151 151 153 148 147 147 153 151 140 137 134 111 49 43
267 263 242 180 140 351 94 86 36 3 2 258 255 173 245 249 230 205 200 198 189 176 171 167 162 163 158 157 152 153 157 160 167 158 160 161 162 159 160 163 163 159 143 103
195 247 229 203 178 183 179 141 154 189 227 277 315 222 251 260 243 196 179 176 173 174 171 171 171 167 165 163 161 160 162 164 172 169 171 166 161 156 161 168 167 173 175 177
182 235 243 207 184 154 158 182 172 148 213 268 279 287 310 333 354 132 146 149 169 177 176 174 170 168 166 164 169 168 163 165 176 176 167 164 159 152 155 160 161 164 167 163
153 206 250 220 99 177 163 153 102 123 166 251 282 267 244 247 240 203 179 176 180 176 172 172 171 169 170 167 170 166 165 172 178 176 177 171 165 158 152 147 152 156 158 145
141 157 265 200 191 191 152 139 128 141 162 165 238 264 232 207 204 195 202 196 185 179 175 175 172 170 167 162 165 166 169 170 175 174 170 160 162 156 149 154 161 161 156 149
158 132 208 240 246 191 173 174 148 155 216 179 191 265 269 211 199 186 195 198 195 181 174 172 166 162 163 166 169 170 172 174 177 171 164 162 164 155 154 161 162 158 159 155
135 117 115 324 317 248 184 187 168 152 145 171 188 261 300 231 202 200 185 186 193 174 162 156 160 167 171 172 174 174 176 178 175 166 163 159 164 165 164 165 159 154 147 143
125 141 179 200 215 208 223 225 189 154 177 208 216 240 279 259 224 221 197 181 180 170 163 161 173 178 174 173 174 174 177 175 171 168 165 168 178 176 169 162 155 151 147 146
114 172 219 235 237 216 228 227 217 211 199 198 224 228 242 230 216 211 192 177 168 172 171 175 182 183 177 174 172 173 173 171 168 169 174 179 180 171 161 155 153 147 146 149
116 171 233 270 251 237 250 239 227 226 216 214 222 242 245 227 197 183 180 177 181 189 189 186 183 184 182 178 176 175 176 175 170 173 180 174 167 163 159 157 151 145 143 137
169 156 168 254 279 273 251 229 212 213 214 200 217 234 237 199 193 194 192 187 190 196 194 188 188 190 188 183 178 179 178 172 171 175 174 169 167 164 166 161 149 149 147 134
176 164 162 217 237 232 244 231 202 204 224 208 213 221 195 200 206 200 190 187 194 197 195 193 190 189 185 179 177 173 162 168 172 170 172 169 165 164 162 156 156 155 145 142
184 166 159 174 216 262 274 243 190 185 236 218 202 205 201 187 125 278 213 194 198 197 191 191 189 184 178 175 172 163 162 164 165 170 174 172 165 161 160 162 162 155 141 139
170 154 154 171 201 232 240 240 188 126 250 239 193 188 181 141 154 241 240 211 199 188 177 176 172 168 173 176 165 160 165 167 178 180 179 175 167 165 168 170 161 149 145 150
176 174 182 186 215 252 251 246 143 182 230 235 193 189 177 181 200 213 204 197 192 178 170 161 156 167 180 172 162 164 169 182 186 173 162 163 168 170 168 163 155 148 145 140
185 184 192 179 205 242 240 180 186 209 220 217 200 198 190 198 195 179 174 177 173 168 158 153 157 172 174 167 163 168 181 185 170 158 155 161 168 171 163 154 155 152 148 146
198 192 184 192 214 234 218 207 212 172 184 213 200 204 173 175 183 175 177 176 174 166 163 159 157 161 166 170 169 176 184 170 160 156 160 160 158 161 158 159 160 153 156 158
251 187 164 207 241 239 231 211 207 172 189 206 199 186 164 175 178 174 176 181 175 169 162 157 148 151 163 174 176 179 171 162 158 160 161 158 153 151 154 158 161 162 168 170
225 194 182 221 247 266 258 230 213 182 135 128 4 213 175 161 173 176 177 182 177 168 162 157 159 162 170 169 170 165 160 156 157 159 160 157 155 156 150 151 163 171 179 179
211 198 195 216 210 198 235 242 211 178 204 221 259 270 217 178 176 174 177 177 167 165 163 161 161 161 164 159 162 160 160 155 153 155 159 158 155 152 148 141 117 95 133 161